Location: Duac?
(36.9744°N, 30.6500°E)
Time: 12:38:21
(UTC+00:00)

Cosmos 1626 Rocket - Pass Details

Date: 05 August 2024
Orbit: 600 x 626 km, 82.5° (Epoch: 11 September)

Event Time Altitude Azimuth Distance (km) Brightness Sun altitude
Exits shadow 18:25:33 29° 127° (SE) 1,114 4.3 -15.8°
Maximum altitude 18:26:49 35° 91° (E) 972 4.1 -16.0°
Drops below altitude 10° 18:30:45 10° 25° (NNE) 1,957 6.3 -16.6°
Sets 18:33:07 0° 17° (NNE) 2,869 7.2 -17.0°
